Location: Asheville, NC
(35.6000°N, 82.5500°W)
Time: 04:22:15
(UTC-04:00)

RS-15 - Pass Details

Date: 03 January 2018
Orbit: 1891 x 2154 km, 64.8° (Epoch: 17 July)

Event Time Altitude Azimuth Distance (km) Brightness Sun altitude
Rises 23:11:38 0° 316° (NW) 5,502 10.7 -67.8°
Reaches altitude 10° 23:16:23 10° 301° (WNW) 4,451 10.1 -68.6°
Enters shadow 23:18:07 13° 293° (WNW) 4,147 9.9 -68.9°
